contact:dominique.lefevre@mio.osupytheas.fr, maurice.libes@osupytheas.fr, didier.mallarino@osupytheas.fr
Project:EMSO http://www.emso-fr.org/EMSO-France
Depth: 2436.0 m
Title:EMSO Ligure Ouest : Data MII capteur MICROCAT
DateTime_Computer,Latitude,Longitude,Temperature,Conductivity,Pressure,DateTime_Instrument
DateTime_Computer,Latitude,Longitude,degC,S m-1,dbar,DateTime_Instrument
2023-04-28T00:00:27Z,42.805,6.029,13.3043,4.60104,2470.754,2023-4-28T02:03:31Z
2023-04-28T00:03:30Z,42.805,6.029,13.3041,4.60103,2470.754,2023-4-28T02:06:34Z
2023-04-28T00:06:33Z,42.805,6.029,13.3055,4.60114,2470.754,2023-4-28T02:09:37Z
2023-04-28T00:09:36Z,42.805,6.029,13.3037,4.60122,2470.763,2023-4-28T02:12:40Z
2023-04-28T00:12:39Z,42.805,6.029,13.3039,4.60102,2470.74,2023-4-28T02:15:43Z
2023-04-28T00:15:42Z,42.805,6.029,13.3048,4.60114,2470.754,2023-4-28T02:18:46Z
2023-04-28T00:18:45Z,42.805,6.029,13.3039,4.60107,2470.777,2023-4-28T02:21:49Z
2023-04-28T00:21:49Z,42.805,6.029,13.3043,4.60111,2470.754,2023-4-28T02:24:52Z
2023-04-28T00:24:52Z,42.805,6.029,13.3048,4.60112,2470.754,2023-4-28T02:27:55Z
2023-04-28T00:27:55Z,42.805,6.029,13.3043,4.60121,2470.717,2023-4-28T02:30:58Z
2023-04-28T00:30:58Z,42.805,6.029,13.3046,4.60106,2470.74,2023-4-28T02:34:02Z
2023-04-28T00:34:01Z,42.805,6.029,13.3044,4.60119,2470.763,2023-4-28T02:37:05Z
2023-04-28T00:37:04Z,42.805,6.029,13.3045,4.60115,2470.777,2023-4-28T02:40:08Z
2023-04-28T00:40:07Z,42.805,6.029,13.3040,4.60110,2470.754,2023-4-28T02:43:11Z
2023-04-28T00:43:10Z,42.805,6.029,13.3040,4.60108,2470.754,2023-4-28T02:46:14Z
2023-04-28T00:46:13Z,42.805,6.029,13.3046,4.60107,2470.726,2023-4-28T02:49:17Z
2023-04-28T00:49:16Z,42.805,6.029,13.3039,4.60105,2470.763,2023-4-28T02:52:20Z
2023-04-28T00:52:19Z,42.805,6.029,13.3044,4.60110,2470.74,2023-4-28T02:55:23Z
2023-04-28T00:55:22Z,42.805,6.029,13.3039,4.60109,2470.754,2023-4-28T02:58:26Z
2023-04-28T00:58:26Z,42.805,6.029,13.3046,4.60111,2470.74,2023-4-28T03:01:29Z
2023-04-28T01:01:29Z,42.805,6.029,13.3038,4.60107,2470.74,2023-4-28T03:04:32Z
2023-04-28T01:04:32Z,42.805,6.029,13.3037,4.60104,2470.74,2023-4-28T03:07:35Z
2023-04-28T01:07:35Z,42.805,6.029,13.3034,4.60111,2470.763,2023-4-28T03:10:39Z
2023-04-28T01:10:38Z,42.805,6.029,13.3039,4.60114,2470.74,2023-4-28T03:13:42Z
2023-04-28T01:13:41Z,42.805,6.029,13.3041,4.60117,2470.717,2023-4-28T03:16:45Z
2023-04-28T01:16:44Z,42.805,6.029,13.3048,4.60116,2470.74,2023-4-28T03:19:48Z
2023-04-28T01:19:47Z,42.805,6.029,13.3042,4.60113,2470.8,2023-4-28T03:22:51Z
2023-04-28T01:22:50Z,42.805,6.029,13.3039,4.60107,2470.763,2023-4-28T03:25:54Z
2023-04-28T01:25:53Z,42.805,6.029,13.3047,4.60117,2470.74,2023-4-28T03:28:57Z
2023-04-28T01:28:56Z,42.805,6.029,13.3037,4.60110,2470.763,2023-4-28T03:32:00Z
2023-04-28T01:31:59Z,42.805,6.029,13.3042,4.60115,2470.763,2023-4-28T03:35:03Z
2023-04-28T01:35:02Z,42.805,6.029,13.3049,4.60114,2470.73,2023-4-28T03:38:06Z
2023-04-28T01:38:06Z,42.805,6.029,13.3043,4.60112,2470.777,2023-4-28T03:41:09Z
2023-04-28T01:41:09Z,42.805,6.029,13.3042,4.60098,2470.777,2023-4-28T03:44:12Z
2023-04-28T01:44:12Z,42.805,6.029,13.3043,4.60114,2470.754,2023-4-28T03:47:15Z
2023-04-28T01:47:15Z,42.805,6.029,13.3043,4.60117,2470.74,2023-4-28T03:50:19Z
2023-04-28T01:50:18Z,42.805,6.029,13.3043,4.60114,2470.74,2023-4-28T03:53:22Z
2023-04-28T01:53:21Z,42.805,6.029,13.3036,4.60109,2470.74,2023-4-28T03:56:25Z
2023-04-28T01:56:24Z,42.805,6.029,13.3049,4.60117,2470.73,2023-4-28T03:59:28Z
2023-04-28T01:59:27Z,42.805,6.029,13.3041,4.60100,2470.787,2023-4-28T04:02:31Z
2023-04-28T02:02:30Z,42.805,6.029,13.3039,4.60098,2470.777,2023-4-28T04:05:34Z
2023-04-28T02:05:33Z,42.805,6.029,13.3043,4.60107,2470.74,2023-4-28T04:08:37Z
2023-04-28T02:08:36Z,42.805,6.029,13.3042,4.60111,2470.763,2023-4-28T04:11:40Z
2023-04-28T02:11:39Z,42.805,6.029,13.3043,4.60104,2470.73,2023-4-28T04:14:43Z
2023-04-28T02:14:42Z,42.805,6.029,13.3048,4.60111,2470.763,2023-4-28T04:17:46Z
2023-04-28T02:17:46Z,42.805,6.029,13.3041,4.60104,2470.763,2023-4-28T04:20:49Z
2023-04-28T02:20:49Z,42.805,6.029,13.3040,4.60102,2470.754,2023-4-28T04:23:52Z
2023-04-28T02:23:52Z,42.805,6.029,13.3043,4.60110,2470.787,2023-4-28T04:26:56Z
2023-04-28T02:26:55Z,42.805,6.029,13.3040,4.60102,2470.763,2023-4-28T04:29:59Z
2023-04-28T02:29:58Z,42.805,6.029,13.3043,4.60102,2470.754,2023-4-28T04:33:02Z
2023-04-28T02:33:01Z,42.805,6.029,13.3045,4.60110,2470.777,2023-4-28T04:36:05Z
2023-04-28T02:36:04Z,42.805,6.029,13.3039,4.60102,2470.717,2023-4-28T04:39:08Z
2023-04-28T02:39:07Z,42.805,6.029,13.3039,4.60099,2470.754,2023-4-28T04:42:11Z
2023-04-28T02:42:10Z,42.805,6.029,13.3039,4.60105,2470.754,2023-4-28T04:45:14Z
2023-04-28T02:45:13Z,42.805,6.029,13.3045,4.60103,2470.777,2023-4-28T04:48:17Z
2023-04-28T02:48:16Z,42.805,6.029,13.3041,4.60120,2470.74,2023-4-28T04:51:20Z
2023-04-28T02:51:19Z,42.805,6.029,13.3043,4.60117,2470.754,2023-4-28T04:54:23Z
2023-04-28T02:54:23Z,42.805,6.029,13.3039,4.60114,2470.763,2023-4-28T04:57:26Z
2023-04-28T02:57:26Z,42.805,6.029,13.3036,4.60101,2470.777,2023-4-28T05:00:29Z
2023-04-28T03:00:29Z,42.805,6.029,13.3039,4.60096,2470.74,2023-4-28T05:03:32Z
2023-04-28T03:03:32Z,42.805,6.029,13.3041,4.60099,2470.763,2023-4-28T05:06:36Z
2023-04-28T03:06:35Z,42.805,6.029,13.3045,4.60102,2470.717,2023-4-28T05:09:39Z
2023-04-28T03:09:38Z,42.805,6.029,13.3043,4.60098,2470.726,2023-4-28T05:12:42Z
2023-04-28T03:12:41Z,42.805,6.029,13.3036,4.60098,2470.717,2023-4-28T05:15:45Z
2023-04-28T03:15:44Z,42.805,6.029,13.3042,4.60102,2470.787,2023-4-28T05:18:48Z
2023-04-28T03:18:47Z,42.805,6.029,13.3039,4.60102,2470.763,2023-4-28T05:21:51Z
2023-04-28T03:21:50Z,42.805,6.029,13.3038,4.60119,2470.74,2023-4-28T05:24:54Z
2023-04-28T03:24:53Z,42.805,6.029,13.3039,4.60104,2470.74,2023-4-28T05:27:57Z
2023-04-28T03:27:56Z,42.805,6.029,13.3037,4.60106,2470.74,2023-4-28T05:31:00Z
2023-04-28T03:30:59Z,42.805,6.029,13.3041,4.60112,2470.74,2023-4-28T05:34:03Z
2023-04-28T03:34:03Z,42.805,6.029,13.3041,4.60114,2470.777,2023-4-28T05:37:06Z
2023-04-28T03:37:06Z,42.805,6.029,13.3035,4.60099,2470.763,2023-4-28T05:40:09Z
2023-04-28T03:40:09Z,42.805,6.029,13.3044,4.60114,2470.763,2023-4-28T05:43:13Z
2023-04-28T03:43:12Z,42.805,6.029,13.3039,4.60116,2470.773,2023-4-28T05:46:16Z
2023-04-28T03:46:15Z,42.805,6.029,13.3041,4.60117,2470.74,2023-4-28T05:49:19Z
2023-04-28T03:49:18Z,42.805,6.029,13.3039,4.60107,2470.763,2023-4-28T05:52:22Z
2023-04-28T03:52:21Z,42.805,6.029,13.3042,4.60113,2470.8,2023-4-28T05:55:25Z
2023-04-28T03:55:24Z,42.805,6.029,13.3037,4.60104,2470.777,2023-4-28T05:58:28Z
2023-04-28T03:58:27Z,42.805,6.029,13.3043,4.60110,2470.8,2023-4-28T06:01:31Z
2023-04-28T04:01:30Z,42.805,6.029,13.3041,4.60121,2470.777,2023-4-28T06:04:34Z
2023-04-28T04:04:33Z,42.805,6.029,13.3042,4.60110,2470.763,2023-4-28T06:07:37Z
2023-04-28T04:07:36Z,42.805,6.029,13.3031,4.60097,2470.777,2023-4-28T06:10:40Z
2023-04-28T04:10:40Z,42.805,6.029,13.3035,4.60098,2470.74,2023-4-28T06:13:43Z
2023-04-28T04:13:43Z,42.805,6.029,13.3039,4.60122,2470.74,2023-4-28T06:16:46Z
2023-04-28T04:16:46Z,42.805,6.029,13.3039,4.60113,2470.754,2023-4-28T06:19:50Z
2023-04-28T04:19:49Z,42.805,6.029,13.3042,4.60102,2470.777,2023-4-28T06:22:53Z
2023-04-28T04:22:52Z,42.805,6.029,13.3040,4.60118,2470.74,2023-4-28T06:25:56Z
2023-04-28T04:25:55Z,42.805,6.029,13.3047,4.60110,2470.74,2023-4-28T06:28:59Z
2023-04-28T04:28:58Z,42.805,6.029,13.3041,4.60109,2470.787,2023-4-28T06:32:02Z
2023-04-28T04:32:01Z,42.805,6.029,13.3043,4.60112,2470.763,2023-4-28T06:35:05Z
2023-04-28T04:35:04Z,42.805,6.029,13.3035,4.60101,2470.74,2023-4-28T06:38:08Z
2023-04-28T04:38:07Z,42.805,6.029,13.3034,4.60099,2470.763,2023-4-28T06:41:11Z
2023-04-28T04:41:10Z,42.805,6.029,13.3037,4.60116,2470.73,2023-4-28T06:44:14Z
2023-04-28T04:44:13Z,42.805,6.029,13.3039,4.60102,2470.763,2023-4-28T06:47:17Z
2023-04-28T04:47:16Z,42.805,6.029,13.3040,4.60117,2470.754,2023-4-28T06:50:20Z
2023-04-28T04:50:20Z,42.805,6.029,13.3048,4.60116,2470.74,2023-4-28T06:53:23Z
2023-04-28T04:53:23Z,42.805,6.029,13.3039,4.60102,2470.754,2023-4-28T06:56:27Z
2023-04-28T04:56:26Z,42.805,6.029,13.3037,4.60107,2470.754,2023-4-28T06:59:30Z
2023-04-28T04:59:29Z,42.805,6.029,13.3044,4.60116,2470.8,2023-4-28T07:02:33Z
2023-04-28T05:02:32Z,42.805,6.029,13.3037,4.60105,2470.754,2023-4-28T07:05:36Z
2023-04-28T05:05:35Z,42.805,6.029,13.3041,4.60110,2470.74,2023-4-28T07:08:39Z
2023-04-28T05:08:38Z,42.805,6.029,13.3041,4.60110,2470.74,2023-4-28T07:11:42Z
2023-04-28T05:11:41Z,42.805,6.029,13.3039,4.60117,2470.74,2023-4-28T07:14:45Z
2023-04-28T05:14:44Z,42.805,6.029,13.3039,4.60110,2470.754,2023-4-28T07:17:48Z
2023-04-28T05:17:47Z,42.805,6.029,13.3044,4.60108,2470.787,2023-4-28T07:20:51Z
2023-04-28T05:20:50Z,42.805,6.029,13.3048,4.60109,2470.754,2023-4-28T07:23:54Z
2023-04-28T05:23:53Z,42.805,6.029,13.3039,4.60094,2470.777,2023-4-28T07:26:57Z
2023-04-28T05:26:56Z,42.805,6.029,13.3038,4.60101,2470.754,2023-4-28T07:30:00Z
2023-04-28T05:30:00Z,42.805,6.029,13.3039,4.60116,2470.74,2023-4-28T07:33:03Z
2023-04-28T05:33:03Z,42.805,6.029,13.3040,4.60102,2470.763,2023-4-28T07:36:07Z
2023-04-28T05:36:06Z,42.805,6.029,13.3040,4.60098,2470.74,2023-4-28T07:39:10Z
2023-04-28T05:39:09Z,42.805,6.029,13.3042,4.60104,2470.763,2023-4-28T07:42:13Z
2023-04-28T05:42:12Z,42.805,6.029,13.3038,4.60102,2470.763,2023-4-28T07:45:16Z
2023-04-28T05:45:15Z,42.805,6.029,13.3041,4.60110,2470.763,2023-4-28T07:48:19Z
2023-04-28T05:48:18Z,42.805,6.029,13.3039,4.60110,2470.717,2023-4-28T07:51:22Z
2023-04-28T05:51:21Z,42.805,6.029,13.3036,4.60096,2470.74,2023-4-28T07:54:25Z
2023-04-28T05:54:24Z,42.805,6.029,13.3038,4.60097,2470.74,2023-4-28T07:57:28Z
2023-04-28T05:57:27Z,42.805,6.029,13.3041,4.60097,2470.717,2023-4-28T08:00:31Z
2023-04-28T06:00:30Z,42.805,6.029,13.3046,4.60107,2470.74,2023-4-28T08:03:34Z
2023-04-28T06:03:33Z,42.805,6.029,13.3048,4.60105,2470.717,2023-4-28T08:06:37Z
2023-04-28T06:06:37Z,42.805,6.029,13.3039,4.60110,2470.74,2023-4-28T08:09:40Z
2023-04-28T06:09:40Z,42.805,6.029,13.3033,4.60099,2470.717,2023-4-28T08:12:43Z
2023-04-28T06:12:43Z,42.805,6.029,13.3039,4.60099,2470.717,2023-4-28T08:15:47Z
2023-04-28T06:15:46Z,42.805,6.029,13.3039,4.60104,2470.754,2023-4-28T08:18:50Z
2023-04-28T06:18:49Z,42.805,6.029,13.3034,4.60104,2470.717,2023-4-28T08:21:53Z
2023-04-28T06:21:52Z,42.805,6.029,13.3042,4.60113,2470.74,2023-4-28T08:24:56Z
2023-04-28T06:24:55Z,42.805,6.029,13.3041,4.60107,2470.73,2023-4-28T08:27:59Z
2023-04-28T06:27:58Z,42.805,6.029,13.3032,4.60110,2470.73,2023-4-28T08:31:02Z
2023-04-28T06:31:01Z,42.805,6.029,13.3034,4.60104,2470.73,2023-4-28T08:34:05Z
2023-04-28T06:34:04Z,42.805,6.029,13.3036,4.60099,2470.73,2023-4-28T08:37:08Z
2023-04-28T06:37:07Z,42.805,6.029,13.3041,4.60110,2470.707,2023-4-28T08:40:11Z
2023-04-28T06:40:10Z,42.805,6.029,13.3033,4.60097,2470.693,2023-4-28T08:43:14Z
2023-04-28T06:43:13Z,42.805,6.029,13.3036,4.60093,2470.684,2023-4-28T08:46:17Z
2023-04-28T06:46:17Z,42.805,6.029,13.3041,4.60101,2470.74,2023-4-28T08:49:20Z
2023-04-28T06:49:20Z,42.805,6.029,13.3045,4.60107,2470.717,2023-4-28T08:52:23Z
2023-04-28T06:52:23Z,42.805,6.029,13.3041,4.60103,2470.717,2023-4-28T08:55:27Z
2023-04-28T06:55:26Z,42.805,6.029,13.3039,4.60108,2470.74,2023-4-28T08:58:30Z
2023-04-28T06:58:29Z,42.805,6.029,13.3041,4.60110,2470.73,2023-4-28T09:01:33Z
2023-04-28T07:01:32Z,42.805,6.029,13.3036,4.60104,2470.707,2023-4-28T09:04:36Z
2023-04-28T07:04:35Z,42.805,6.029,13.3038,4.60107,2470.707,2023-4-28T09:07:39Z
2023-04-28T07:07:38Z,42.805,6.029,13.3039,4.60104,2470.693,2023-4-28T09:10:42Z
2023-04-28T07:10:41Z,42.805,6.029,13.3034,4.60092,2470.693,2023-4-28T09:13:45Z
2023-04-28T07:13:44Z,42.805,6.029,13.3038,4.60111,2470.73,2023-4-28T09:16:48Z
2023-04-28T07:16:47Z,42.805,6.029,13.3036,4.60110,2470.693,2023-4-28T09:19:51Z
2023-04-28T07:19:50Z,42.805,6.029,13.3033,4.60097,2470.693,2023-4-28T09:22:54Z
2023-04-28T07:22:53Z,42.805,6.029,13.3035,4.60107,2470.717,2023-4-28T09:25:57Z
2023-04-28T07:25:57Z,42.805,6.029,13.3041,4.60107,2470.693,2023-4-28T09:29:00Z
2023-04-28T07:29:00Z,42.805,6.029,13.3046,4.60099,2470.67,2023-4-28T09:32:04Z
2023-04-28T07:32:03Z,42.805,6.029,13.3036,4.60104,2470.67,2023-4-28T09:35:07Z
2023-04-28T07:35:06Z,42.805,6.029,13.3037,4.60105,2470.693,2023-4-28T09:38:10Z
2023-04-28T07:38:09Z,42.805,6.029,13.3038,4.60110,2470.707,2023-4-28T09:41:13Z
2023-04-28T07:41:12Z,42.805,6.029,13.3036,4.60107,2470.693,2023-4-28T09:44:16Z
2023-04-28T07:44:15Z,42.805,6.029,13.3040,4.60102,2470.707,2023-4-28T09:47:19Z
2023-04-28T07:47:18Z,42.805,6.029,13.3038,4.60105,2470.684,2023-4-28T09:50:22Z
2023-04-28T07:50:21Z,42.805,6.029,13.3034,4.60097,2470.693,2023-4-28T09:53:25Z
2023-04-28T07:53:24Z,42.805,6.029,13.3044,4.60107,2470.693,2023-4-28T09:56:28Z
2023-04-28T07:56:27Z,42.805,6.029,13.3037,4.60108,2470.707,2023-4-28T09:59:31Z
2023-04-28T07:59:30Z,42.805,6.029,13.3036,4.60094,2470.717,2023-4-28T10:02:34Z
2023-04-28T08:02:33Z,42.805,6.029,13.3040,4.60104,2470.693,2023-4-28T10:05:37Z
2023-04-28T08:05:37Z,42.805,6.029,13.3037,4.60095,2470.693,2023-4-28T10:08:41Z
2023-04-28T08:08:40Z,42.805,6.029,13.3036,4.60099,2470.67,2023-4-28T10:11:44Z
2023-04-28T08:11:43Z,42.805,6.029,13.3032,4.60089,2470.693,2023-4-28T10:14:47Z
2023-04-28T08:14:46Z,42.805,6.029,13.3032,4.60089,2470.684,2023-4-28T10:17:50Z
2023-04-28T08:17:49Z,42.805,6.029,13.3031,4.60099,2470.693,2023-4-28T10:20:53Z
2023-04-28T08:20:52Z,42.805,6.029,13.3034,4.60102,2470.717,2023-4-28T10:23:56Z
2023-04-28T08:23:55Z,42.805,6.029,13.3031,4.60088,2470.67,2023-4-28T10:26:59Z
2023-04-28T08:26:58Z,42.805,6.029,13.3034,4.60090,2470.707,2023-4-28T10:30:02Z
2023-04-28T08:30:01Z,42.805,6.029,13.3034,4.60097,2470.73,2023-4-28T10:33:05Z
2023-04-28T08:33:03Z,42.805,6.029,13.3038,4.60098,2470.646,2023-4-28T10:36:07Z
2023-04-28T08:36:06Z,42.805,6.029,13.3037,4.60097,2470.67,2023-4-28T10:39:10Z
2023-04-28T08:39:09Z,42.805,6.029,13.3033,4.60095,2470.67,2023-4-28T10:42:13Z
2023-04-28T08:42:12Z,42.805,6.029,13.3040,4.60097,2470.67,2023-4-28T10:45:16Z
2023-04-28T08:45:15Z,42.805,6.029,13.3035,4.60094,2470.684,2023-4-28T10:48:19Z
2023-04-28T08:48:18Z,42.805,6.029,13.3034,4.60094,2470.693,2023-4-28T10:51:22Z
2023-04-28T08:51:21Z,42.805,6.029,13.3043,4.60107,2470.67,2023-4-28T10:54:25Z
2023-04-28T08:54:24Z,42.805,6.029,13.3038,4.60093,2470.717,2023-4-28T10:57:28Z
2023-04-28T08:57:27Z,42.805,6.029,13.3036,4.60099,2470.707,2023-4-28T11:00:31Z
2023-04-28T09:00:30Z,42.805,6.029,13.3047,4.60106,2470.67,2023-4-28T11:03:34Z
2023-04-28T09:03:33Z,42.805,6.029,13.3034,4.60099,2470.717,2023-4-28T11:06:37Z
2023-04-28T09:06:37Z,42.805,6.029,13.3030,4.60102,2470.67,2023-4-28T11:09:40Z
2023-04-28T09:09:40Z,42.805,6.029,13.3034,4.60091,2470.67,2023-4-28T11:12:44Z
2023-04-28T09:12:43Z,42.805,6.029,13.3043,4.60104,2470.684,2023-4-28T11:15:47Z
2023-04-28T09:15:46Z,42.805,6.029,13.3034,4.60097,2470.67,2023-4-28T11:18:50Z
2023-04-28T09:18:49Z,42.805,6.029,13.3036,4.60099,2470.67,2023-4-28T11:21:53Z
2023-04-28T09:21:52Z,42.805,6.029,13.3037,4.60105,2470.67,2023-4-28T11:24:56Z
2023-04-28T09:24:55Z,42.805,6.029,13.3035,4.60109,2470.707,2023-4-28T11:27:59Z
2023-04-28T09:27:58Z,42.805,6.029,13.3033,4.60100,2470.684,2023-4-28T11:31:02Z
2023-04-28T09:31:01Z,42.805,6.029,13.3041,4.60108,2470.684,2023-4-28T11:34:05Z
2023-04-28T09:34:04Z,42.805,6.029,13.3032,4.60102,2470.707,2023-4-28T11:37:08Z
2023-04-28T09:37:07Z,42.805,6.029,13.3036,4.60094,2470.67,2023-4-28T11:40:11Z
2023-04-28T09:40:10Z,42.805,6.029,13.3036,4.60112,2470.67,2023-4-28T11:43:14Z
2023-04-28T09:43:14Z,42.805,6.029,13.3037,4.60100,2470.707,2023-4-28T11:46:17Z
2023-04-28T09:46:17Z,42.805,6.029,13.3039,4.60107,2470.67,2023-4-28T11:49:21Z
2023-04-28T09:49:20Z,42.805,6.029,13.3034,4.60105,2470.684,2023-4-28T11:52:24Z
2023-04-28T09:52:23Z,42.805,6.029,13.3034,4.60092,2470.693,2023-4-28T11:55:27Z
2023-04-28T09:55:26Z,42.805,6.029,13.3035,4.60105,2470.67,2023-4-28T11:58:30Z
2023-04-28T09:58:29Z,42.805,6.029,13.3038,4.60105,2470.693,2023-4-28T12:01:33Z
2023-04-28T10:01:32Z,42.805,6.029,13.3034,4.60103,2470.67,2023-4-28T12:04:36Z
2023-04-28T10:04:35Z,42.805,6.029,13.3039,4.60098,2470.67,2023-4-28T12:07:39Z
2023-04-28T10:07:38Z,42.805,6.029,13.3035,4.60104,2470.67,2023-4-28T12:10:42Z
2023-04-28T10:10:41Z,42.805,6.029,13.3032,4.60092,2470.67,2023-4-28T12:13:45Z
2023-04-28T10:13:44Z,42.805,6.029,13.3034,4.60097,2470.67,2023-4-28T12:16:48Z
2023-04-28T10:16:47Z,42.805,6.029,13.3031,4.60096,2470.67,2023-4-28T12:19:51Z
2023-04-28T10:19:51Z,42.805,6.029,13.3036,4.60087,2470.646,2023-4-28T12:22:55Z
2023-04-28T10:22:54Z,42.805,6.029,13.3034,4.60104,2470.693,2023-4-28T12:25:58Z
2023-04-28T10:25:57Z,42.805,6.029,13.3037,4.60099,2470.646,2023-4-28T12:29:01Z
2023-04-28T10:29:00Z,42.805,6.029,13.3036,4.60098,2470.693,2023-4-28T12:32:04Z
2023-04-28T10:32:03Z,42.805,6.029,13.3036,4.60094,2470.693,2023-4-28T12:35:07Z
2023-04-28T10:35:06Z,42.805,6.029,13.3030,4.60092,2470.707,2023-4-28T12:38:10Z
2023-04-28T10:38:09Z,42.805,6.029,13.3038,4.60097,2470.693,2023-4-28T12:41:13Z
2023-04-28T10:41:12Z,42.805,6.029,13.3043,4.60112,2470.73,2023-4-28T12:44:16Z
2023-04-28T10:44:15Z,42.805,6.029,13.3037,4.60112,2470.707,2023-4-28T12:47:19Z
2023-04-28T10:47:18Z,42.805,6.029,13.3045,4.60101,2470.67,2023-4-28T12:50:22Z
2023-04-28T10:50:21Z,42.805,6.029,13.3038,4.60107,2470.646,2023-4-28T12:53:25Z
2023-04-28T10:53:25Z,42.805,6.029,13.3033,4.60093,2470.67,2023-4-28T12:56:29Z
2023-04-28T10:56:28Z,42.805,6.029,13.3034,4.60103,2470.67,2023-4-28T12:59:32Z
2023-04-28T10:59:31Z,42.805,6.029,13.3032,4.60091,2470.693,2023-4-28T13:02:35Z
2023-04-28T11:02:34Z,42.805,6.029,13.3031,4.60104,2470.684,2023-4-28T13:05:38Z
2023-04-28T11:05:37Z,42.805,6.029,13.3032,4.60092,2470.67,2023-4-28T13:08:41Z
2023-04-28T11:08:40Z,42.805,6.029,13.3034,4.60099,2470.693,2023-4-28T13:11:44Z
2023-04-28T11:11:43Z,42.805,6.029,13.3034,4.60089,2470.684,2023-4-28T13:14:47Z
2023-04-28T11:14:46Z,42.805,6.029,13.3031,4.60092,2470.73,2023-4-28T13:17:50Z
2023-04-28T11:17:49Z,42.805,6.029,13.3032,4.60101,2470.693,2023-4-28T13:20:53Z
2023-04-28T11:20:52Z,42.805,6.029,13.3032,4.60089,2470.646,2023-4-28T13:23:56Z
2023-04-28T11:23:55Z,42.805,6.029,13.3031,4.60099,2470.717,2023-4-28T13:26:59Z
2023-04-28T11:26:58Z,42.805,6.029,13.3036,4.60101,2470.693,2023-4-28T13:30:02Z
2023-04-28T11:30:02Z,42.805,6.029,13.3033,4.60091,2470.684,2023-4-28T13:33:06Z
2023-04-28T11:33:05Z,42.805,6.029,13.3036,4.60095,2470.693,2023-4-28T13:36:09Z
2023-04-28T11:36:08Z,42.805,6.029,13.3038,4.60101,2470.684,2023-4-28T13:39:12Z
2023-04-28T11:39:11Z,42.805,6.029,13.3033,4.60101,2470.684,2023-4-28T13:42:15Z
2023-04-28T11:42:14Z,42.805,6.029,13.3035,4.60096,2470.684,2023-4-28T13:45:18Z
2023-04-28T11:45:17Z,42.805,6.029,13.3030,4.60093,2470.684,2023-4-28T13:48:21Z
2023-04-28T11:48:20Z,42.805,6.029,13.3044,4.60102,2470.67,2023-4-28T13:51:24Z
2023-04-28T11:51:23Z,42.805,6.029,13.3037,4.60095,2470.656,2023-4-28T13:54:27Z
2023-04-28T11:54:26Z,42.805,6.029,13.3034,4.60104,2470.684,2023-4-28T13:57:30Z
2023-04-28T11:57:29Z,42.805,6.029,13.3033,4.60094,2470.67,2023-4-28T14:00:33Z
2023-04-28T12:00:32Z,42.805,6.029,13.3036,4.60112,2470.67,2023-4-28T14:03:36Z
2023-04-28T12:03:35Z,42.805,6.029,13.3033,4.60097,2470.693,2023-4-28T14:06:39Z
2023-04-28T12:06:39Z,42.805,6.029,13.3040,4.60100,2470.67,2023-4-28T14:09:43Z
2023-04-28T12:09:42Z,42.805,6.029,13.3034,4.60094,2470.707,2023-4-28T14:12:46Z
2023-04-28T12:12:45Z,42.805,6.029,13.3034,4.60102,2470.67,2023-4-28T14:15:49Z
2023-04-28T12:15:48Z,42.805,6.029,13.3034,4.60112,2470.67,2023-4-28T14:18:52Z
2023-04-28T12:18:51Z,42.805,6.029,13.3034,4.60092,2470.684,2023-4-28T14:21:55Z
2023-04-28T12:21:54Z,42.805,6.029,13.3034,4.60099,2470.707,2023-4-28T14:24:58Z
2023-04-28T12:24:57Z,42.805,6.029,13.3032,4.60092,2470.693,2023-4-28T14:28:01Z
2023-04-28T12:28:00Z,42.805,6.029,13.3035,4.60093,2470.707,2023-4-28T14:31:04Z
2023-04-28T12:31:03Z,42.805,6.029,13.3040,4.60094,2470.661,2023-4-28T14:34:07Z
2023-04-28T12:34:06Z,42.805,6.029,13.3032,4.60108,2470.661,2023-4-28T14:37:10Z
2023-04-28T12:37:09Z,42.805,6.029,13.3039,4.60100,2470.707,2023-4-28T14:40:13Z
2023-04-28T12:40:12Z,42.805,6.029,13.3034,4.60090,2470.67,2023-4-28T14:43:16Z
2023-04-28T12:43:16Z,42.805,6.029,13.3042,4.60105,2470.67,2023-4-28T14:46:20Z
2023-04-28T12:46:19Z,42.805,6.029,13.3036,4.60095,2470.684,2023-4-28T14:49:23Z
2023-04-28T12:49:22Z,42.805,6.029,13.3033,4.60098,2470.693,2023-4-28T14:52:26Z
2023-04-28T12:52:25Z,42.805,6.029,13.3029,4.60097,2470.646,2023-4-28T14:55:29Z
2023-04-28T12:55:28Z,42.805,6.029,13.3040,4.60105,2470.67,2023-4-28T14:58:32Z
2023-04-28T12:58:31Z,42.805,6.029,13.3038,4.60109,2470.661,2023-4-28T15:01:35Z
2023-04-28T13:01:34Z,42.805,6.029,13.3039,4.60114,2470.693,2023-4-28T15:04:38Z
2023-04-28T13:04:37Z,42.805,6.029,13.3036,4.60109,2470.67,2023-4-28T15:07:41Z
2023-04-28T13:07:40Z,42.805,6.029,13.3031,4.60105,2470.661,2023-4-28T15:10:44Z
2023-04-28T13:10:43Z,42.805,6.029,13.3043,4.60113,2470.693,2023-4-28T15:13:47Z
2023-04-28T13:13:46Z,42.805,6.029,13.3039,4.60107,2470.67,2023-4-28T15:16:50Z
2023-04-28T13:16:49Z,42.805,6.029,13.3034,4.60102,2470.67,2023-4-28T15:19:53Z
2023-04-28T13:19:53Z,42.805,6.029,13.3029,4.60099,2470.67,2023-4-28T15:22:57Z
2023-04-28T13:22:56Z,42.805,6.029,13.3032,4.60092,2470.67,2023-4-28T15:26:00Z
2023-04-28T13:25:59Z,42.805,6.029,13.3031,4.60097,2470.693,2023-4-28T15:29:03Z
2023-04-28T13:29:02Z,42.805,6.029,13.3032,4.60104,2470.684,2023-4-28T15:32:06Z
2023-04-28T13:32:05Z,42.805,6.029,13.3037,4.60098,2470.661,2023-4-28T15:35:09Z
2023-04-28T13:35:08Z,42.805,6.029,13.3034,4.60110,2470.67,2023-4-28T15:38:12Z
2023-04-28T13:38:11Z,42.805,6.029,13.3035,4.60102,2470.67,2023-4-28T15:41:15Z
2023-04-28T13:41:14Z,42.805,6.029,13.3034,4.60099,2470.646,2023-4-28T15:44:18Z
2023-04-28T13:44:17Z,42.805,6.029,13.3033,4.60094,2470.707,2023-4-28T15:47:21Z
2023-04-28T13:47:20Z,42.805,6.029,13.3032,4.60105,2470.67,2023-4-28T15:50:24Z
2023-04-28T13:50:23Z,42.805,6.029,13.3030,4.60102,2470.693,2023-4-28T15:53:27Z
2023-04-28T13:53:26Z,42.805,6.029,13.3036,4.60106,2470.684,2023-4-28T15:56:31Z
2023-04-28T13:56:30Z,42.805,6.029,13.3039,4.60098,2470.646,2023-4-28T15:59:34Z
2023-04-28T13:59:33Z,42.805,6.029,13.3032,4.60093,2470.693,2023-4-28T16:02:37Z
2023-04-28T14:02:36Z,42.805,6.029,13.3032,4.60088,2470.646,2023-4-28T16:05:40Z
2023-04-28T14:05:39Z,42.805,6.029,13.3035,4.60100,2470.646,2023-4-28T16:08:43Z
2023-04-28T14:08:42Z,42.805,6.029,13.3043,4.60113,2470.684,2023-4-28T16:11:46Z
2023-04-28T14:11:45Z,42.805,6.029,13.3039,4.60101,2470.67,2023-4-28T16:14:49Z
2023-04-28T14:14:48Z,42.805,6.029,13.3029,4.60092,2470.693,2023-4-28T16:17:52Z
2023-04-28T14:17:51Z,42.805,6.029,13.3041,4.60108,2470.684,2023-4-28T16:20:55Z
2023-04-28T14:20:54Z,42.805,6.029,13.3041,4.60109,2470.67,2023-4-28T16:23:58Z
2023-04-28T14:23:57Z,42.805,6.029,13.3034,4.60112,2470.67,2023-4-28T16:27:01Z
2023-04-28T14:27:00Z,42.805,6.029,13.3043,4.60099,2470.661,2023-4-28T16:30:04Z
2023-04-28T14:30:07Z,42.805,6.029,13.3031,4.60093,2470.67,2023-4-28T16:33:08Z
2023-04-28T14:33:06Z,42.805,6.029,13.3040,4.60111,2470.67,2023-4-28T16:36:10Z
2023-04-28T14:36:09Z,42.805,6.029,13.3035,4.60108,2470.67,2023-4-28T16:39:13Z
2023-04-28T14:39:12Z,42.805,6.029,13.3031,4.60099,2470.67,2023-4-28T16:42:16Z
2023-04-28T14:42:15Z,42.805,6.029,13.3036,4.60092,2470.707,2023-4-28T16:45:19Z
2023-04-28T14:45:18Z,42.805,6.029,13.3031,4.60102,2470.693,2023-4-28T16:48:23Z
2023-04-28T14:48:22Z,42.805,6.029,13.3030,4.60099,2470.646,2023-4-28T16:51:26Z
2023-04-28T14:51:25Z,42.805,6.029,13.3033,4.60101,2470.693,2023-4-28T16:54:29Z
2023-04-28T14:54:28Z,42.805,6.029,13.3042,4.60106,2470.684,2023-4-28T16:57:32Z
2023-04-28T14:57:31Z,42.805,6.029,13.3031,4.60105,2470.646,2023-4-28T17:00:35Z
2023-04-28T15:00:34Z,42.805,6.029,13.3043,4.60099,2470.684,2023-4-28T17:03:38Z
2023-04-28T15:03:37Z,42.805,6.029,13.3039,4.60098,2470.661,2023-4-28T17:06:41Z
2023-04-28T15:06:40Z,42.805,6.029,13.3037,4.60103,2470.661,2023-4-28T17:09:44Z
2023-04-28T15:09:43Z,42.805,6.029,13.3032,4.60092,2470.684,2023-4-28T17:12:47Z
2023-04-28T15:12:46Z,42.805,6.029,13.3036,4.60110,2470.684,2023-4-28T17:15:50Z